Regional Weather Roundup
Issued by NWS

Home | Current Version | Previous Version | Graphics & Text | Print | Product List | Glossary On
Versions: 1 2 3 4 5 6 7 8 9 10 11 12 13 14 15 16 17 18 19 20 21 22 23 24 25 26 27 28 29 30 31 32 33 34 35 36 37 38 39 40 41 42 43 44 45 46 47 48 49 50
000
ASUS43 KTOP 241208
RWRKS

WEATHER ROUNDUP FOR KANSAS
NATIONAL WEATHER SERVICE GOODLAND KS
700 AM CDT TUE OCT 24 2017

NOTE:  "FAIR" INDICATES FEW OR NO CLOUDS BELOW 12,000 FEET WITH NO
SIGNIFICANT WEATHER AND/OR OBSTRUCTIONS TO VISIBILITY.

KSZ001>006-013>018-027>032-041>047-241300-
NORTHWEST KANSAS

CITY           SKY/WX    TMP DP  RH WIND       PRES   REMARKS
GOODLAND       CLEAR     31  21  66 W10       30.44R WCI  22
6HR MIN TEMP:  29; 6HR MAX TEMP:  41;

HAYS           CLEAR     48  25  40 NW24G32   30.32R
HILL CITY      CLEAR     44  25  47 NW16      30.37R
6HR MIN TEMP:  44; 6HR MAX TEMP:  49;

RUSSELL        CLEAR     47  27  45 NW24G31   30.30R
6HR MIN TEMP:  46; 6HR MAX TEMP:  49;

$$

KSZ061>065-074>080-084>089-241300-
SOUTHWEST KANSAS

CITY           SKY/WX    TMP DP  RH WIND       PRES   REMARKS
DODGE CITY     CLEAR     43  23  45 NW17      30.40R
6HR MIN TEMP:  42; 6HR MAX TEMP:  47;

ELKHART          N/A     38  22  52 NW10        N/A  WCI  31
GARDEN CITY    CLEAR     39  22  50 NW13      30.43R WCI  31
6HR MIN TEMP:  38; 6HR MAX TEMP:  43;

GREAT BEND     CLEAR     43  26  51 NW12      30.31S
PRATT          CLEAR     45  23  41 NW17G24   30.32S
6HR MIN TEMP:  42; 6HR MAX TEMP:  47;

$$

KSZ066>073-081>083-090>101-241300-
SOUTHEAST KANSAS

CITY           SKY/WX    TMP DP  RH WIND       PRES   REMARKS
CHANUTE        MOCLDY    48  32  53 NW15      30.12S
6HR MIN TEMP:  46; 6HR MAX TEMP:  52;

COFFEYVILLE    CLEAR     48  32  53 W10       30.15S
6HR MIN TEMP:  48; 6HR MAX TEMP:  53;

HUTCHINSON     CLEAR     42  29  59 NW12      30.25R
6HR MIN TEMP:  42; 6HR MAX TEMP:  47;

MEDICINE LODGE   N/A     48  24  39 NW15G25   30.31S
NEWTON         CLEAR     48  27  44 NW23G30   30.20
PARSONS        CLEAR     50  31  48 NW15      30.14S
6HR MIN TEMP:  46; 6HR MAX TEMP:  51;

WICHITA INTL   CLEAR     47  28  47 NW15      30.23S
6HR MIN TEMP:  47; 6HR MAX TEMP:  51;

WICHITA JABRA  CLEAR     49  28  44 NW21G28   30.22R
6HR MIN TEMP:  44; 6HR MAX TEMP:  50;

WICHITA MCCONL CLEAR     47  26  42 NW15      30.22R
WINFIELD       CLEAR     47  30  51 NW15      30.24S
6HR MIN TEMP:  45; 6HR MAX TEMP:  48;

$$

KSZ007>012-019>026-033>040-048>060-102>105-241300-
NORTHEAST KANSAS

CITY           SKY/WX    TMP DP  RH WIND       PRES   REMARKS
CONCORDIA      CLEAR     46  30  53 NW16G26   30.22R
6HR MIN TEMP:  44; 6HR MAX TEMP:  50;

EMPORIA        CLEAR     47  29  49 NW15G28   30.14R
6HR MIN TEMP:  46; 6HR MAX TEMP:  50;

LAWRENCE       CLEAR     48  26  42 NW24G37   30.07R
6HR MIN TEMP:  48; 6HR MAX TEMP:  52; 6HR PCP: TRACE;

MANHATTAN      CLEAR     49  30  48 N9G25     30.17R
6HR MIN TEMP:  48; 6HR MAX TEMP:  52;

MARYSVILLE     CLEAR     45  32  61 NW21G30   30.14S
OLATHE IND     CLEAR     47  26  44 NW29G39   30.05R
6HR MIN TEMP:  47; 6HR MAX TEMP:  52;

OLATHE EXE     PTCLDY    46  26  45 NW25G32   30.03R
6HR MIN TEMP:  46; 6HR MAX TEMP:  51;

SALINA         CLEAR     49  29  46 NW20G29   30.24R
6HR MIN TEMP:  48; 6HR MAX TEMP:  52; 6HR PCP: TRACE;

TOPEKA BILLARD CLEAR     48  30  49 NW21G29   30.10R
6HR MIN TEMP:  48; 6HR MAX TEMP:  52;

TOPEKA FORBES  CLEAR     49  29  46 NW31G43   30.09R
6HR MIN TEMP:  49; 6HR MAX TEMP:  52;

$$



USA.gov is the U.S. government's official web portal to all federal, state and local government web resources and services.